CDT,Max TemperatureF,Mean TemperatureF,Min TemperatureF,Max Dew PointF,MeanDew PointF,Min DewpointF,Max Humidity, Mean Humidity, Min Humidity, Max Sea Level PressureIn, Mean Sea Level PressureIn, Min Sea Level PressureIn, Max VisibilityMiles, Mean VisibilityMiles, Min VisibilityMiles, Max Wind SpeedMPH, Mean Wind SpeedMPH, Max Gust SpeedMPH,PrecipitationIn, CloudCover, Events, WindDirDegrees
2012-9-1,83,76,69,70,64,53,87,67,46,29.99,29.95,29.92,10,10,7,20,11,25,0.00,7,,42
2012-9-2,91,78,64,68,62,55,79,63,47,29.98,29.92,29.86,10,10,10,12,5,15,0.00,2,,84
2012-9-3,86,78,70,72,69,67,90,73,55,29.99,29.90,29.84,10,9,6,15,5,18,0.01,6,Rain-Thunderstorm,129
2012-9-4,97,84,71,72,69,65,93,64,35,29.89,29.82,29.72,10,8,2,15,6,18,0.00,3,Thunderstorm,180
2012-9-5,92,79,65,71,60,52,81,58,34,29.90,29.81,29.73,10,10,10,32,9,45,0.02,3,Thunderstorm,360
2012-9-6,87,73,58,56,51,45,80,52,24,30.01,29.91,29.81,10,10,10,17,6,24,0.00,1,,96
2012-9-7,74,67,60,61,55,42,87,66,44,30.04,29.90,29.77,10,10,10,25,12,33,T,5,Rain,3
2012-9-8,82,66,50,45,43,37,80,52,23,30.10,30.02,29.88,10,10,10,24,11,30,0.00,1,,305
2012-9-9,77,64,51,49,46,42,77,55,33,30.20,30.13,30.03,10,10,10,13,6,18,0.00,0,,356
2012-9-10,84,68,52,50,48,46,77,53,28,30.16,30.07,29.97,10,10,10,22,11,29,0.00,1,,176
2012-9-11,94,77,60,53,50,46,72,47,21,29.99,29.94,29.89,10,10,10,23,13,31,0.00,3,,182
2012-9-12,86,72,58,58,52,38,73,52,31,30.22,30.04,29.95,10,10,10,26,12,37,T,6,,128
2012-9-13,64,58,51,54,49,47,89,73,56,30.40,30.34,30.24,10,9,2,23,7,31,0.72,8,Rain,26
2012-9-14,78,64,50,49,43,34,86,54,21,30.39,30.34,30.29,10,10,10,15,6,20,0.00,2,,207
2012-9-15,80,66,52,48,45,40,77,52,26,30.30,30.22,30.11,10,10,10,16,7,21,0.00,0,,178
2012-9-16,78,65,52,59,54,46,84,69,54,30.11,30.02,29.93,10,10,9,15,7,20,0.00,3,,193
2012-9-17,69,60,51,59,52,40,90,71,52,30.00,29.94,29.89,10,8,3,20,7,26,0.23,6,Rain,330
2012-9-18,67,55,43,41,36,29,89,57,24,30.09,30.04,29.99,10,10,10,20,8,25,0.00,1,,299
2012-9-19,84,67,49,52,41,32,66,44,22,29.98,29.87,29.75,10,10,10,23,12,28,0.00,4,,219
2012-9-20,73,62,51,39,34,27,54,37,19,30.01,29.97,29.94,10,10,8,22,7,28,0.00,7,,283
2012-9-21,73,63,53,44,41,35,61,47,33,29.94,29.85,29.77,10,10,10,20,7,23,T,4,,42
2012-9-22,63,53,43,39,33,26,71,53,34,30.29,30.15,29.88,10,10,10,21,9,30,0.00,0,,336
2012-9-23,67,52,36,37,31,25,86,54,22,30.37,30.30,30.24,10,10,10,15,4,21,0.00,1,,319
2012-9-24,78,60,42,46,36,30,67,44,21,30.24,30.04,29.86,10,10,10,18,8,24,0.00,4,,177
2012-9-25,85,69,53,52,47,39,83,53,23,29.93,29.84,29.80,10,10,10,13,4,15,0.00,3,,1
2012-9-26,77,65,53,40,36,30,55,37,19,30.14,30.03,29.89,10,10,10,14,5,17,0.00,6,,32
2012-9-27,76,62,47,45,40,37,71,49,27,30.24,30.18,30.13,10,10,10,10,4,20,0.00,3,,85
2012-9-28,75,60,45,43,40,37,71,49,27,30.24,30.18,30.14,10,10,10,8,2,12,0.00,3,,95
2012-9-29,83,66,48,45,42,39,77,50,22,30.19,30.10,30.01,10,10,7,9,2,13,0.00,0,,309
2012-9-30,85,69,52,46,42,38,66,43,20,30.01,29.94,29.87,10,10,10,12,5,14,0.00,6,,9